Regional Weather Roundup
Issued by NWS Albany, NY

Home | Current Version | Previous Version | Text Only | Print | Product List | Glossary On
Versions: 1 2 3 4 5 6 7 8 9 10 11 12 13 14 15 16 17 18 19 20 21 22 23 24 25 26 27
000
ASUS41 KALY 260010
RWRALY

NEW YORK STATE HOURLY WEATHER ROUNDUP
NATIONAL WEATHER SERVICE ALBANY NY
700 PM EST SAT FEB 25 2017

NOTE: "FAIR" INDICATES FEW OR NO CLOUDS BELOW 12,000 FEET WITH NO
SIGNIFICANT WEATHER AND/OR NO OBSTRUCTIONS TO VISIBILITY.

NYZ032-033-038>043-046>054-057>066-NYZ062>081-082-084-260100-
EAST


CITY           SKY/WX    TMP DP  RH WIND       PRES   REMARKS
ALBANY         TSTM      39  36  87 NW17G23   29.62R WCI  30
GLENS FALLS    LGT RAIN  44  36  73 NW18G33   29.53R
POUGHKEEPSIE   RAIN      50  47  89 W8        29.54R FOG
NEWBURGH       RAIN      46  45  93 NW18G30   29.56R FOG
MONTGOMERY     HVY RAIN  47  43  86 W10G16    29.57R FOG
WHITE PLAINS   TSTM      57  55  93 W16G31    29.54R FOG
ISLIP          FOG       51  51 100 S13       29.49F VSB 1/8
NEW YORK CITY  TSTM      59  55  87 W13       29.52R FOG
CENTRAL PARK   RAIN      53  53 100 W3        29.55R FOG
$$

NYZ005>009-017-018-044>046-055-056-260100-
CENTRAL


CITY           SKY/WX    TMP DP  RH WIND       PRES   REMARKS
FULTON         LGT RAIN  40  33  76 W10G23    29.63R WCI  33
SYRACUSE       CLOUDY    38  38 100 SW8       29.64S WCI  32
ROME           LGT SNOW  34  34 100 SW3       29.66R FOG
ELMIRA         CLOUDY    40  32  73 N9        29.65R WCI  34
BINGHAMTON     FLURRIES  33  32  96 N8        29.62R WCI  26
MONTICELLO     CLOUDY   N/A N/A N/A W14       29.61S
$$

NYZ026>034-041>043-087-260100-
NORTH


CITY           SKY/WX    TMP DP  RH WIND       PRES   REMARKS
WATERTOWN      LGT RAIN  39  35  86 SW16G33   29.61R WCI  30
FORT DRUM      NOT AVBL
OGDENSBURG     RAIN      38  37  96 S10G18    29.54R WCI  32
MASSENA        LGT RAIN  39  37  92 S10       29.55R WCI  32
SARANAC LAKE   LGT SNOW  33  33 100 SW10      29.53S VSB 3/4 WCI  25
PLATTSBURGH    RAIN      40  36  86 W14G22    29.49R WCI  32
$$

NYZ001>004-010>016-019>021-085-260100-
WEST


CITY           SKY/WX    TMP DP  RH WIND       PRES   REMARKS
NIAGARA FALLS  CLOUDY    36  22  56 W18G33    29.65R WCI  26
BUFFALO        CLOUDY    35  25  66 SW26G37   29.66R WCI  22
DUNKIRK        FLURRIES  33  22  63 W22G41    29.72R WCI  21
JAMESTOWN      CLOUDY    28  21  74 W22G32    29.68R WCI  15
WELLSVILLE     CLOUDY    32  25  75 W13G24    29.64R WCI  22
ROCHESTER      CLOUDY    38  27  64 W13G26    29.65R WCI  30
PENN YAN       CLOUDY    38  25  59 W12G21    29.66R WCI  30
$$

             KEY
       WCI = WIND CHILL INDEX
       VSB = VISIBILITY
       HX  = HEAT INDEX
$$




USA.gov is the U.S. government's official web portal to all federal, state and local government web resources and services.